Showing default

LEGION 6, 62901

Orbit data source: Space-Track

LEGION 6, 62901 is a payload satellite owned by Maxar Intel (US) in LEO that was launched on Tue, 04 Feb 2025 UTC via an FALCON 9 launch vehicle from the Air Force Eastern Test Range (AFETR). Payload-class satellites include a variety of spacecraft equipped with specific instruments for various scientific and technological missions. These include communications satellites like Starlink; space stations such as the ISS; scientific satellites like the Hubble; Earth observation satellites from companies like Planet Labs, Umbra, and HawkEye 360; GPS; miniature CubeSats for education and research; and military/defense satellites.

Loading next visibility...
Identifier
62901, 2025-025B
Orbit
LEO
Last TLE update
20 hours ago
Origin
Manufacturer
Maxar Space Inf
Mission
Operational Commercial Imaging
Bus & Motor
LEGION, Unknown motor
Mass
~700 kg wet, 630 kg dry
Launch date (UTC)
2025-02-04 (5 months ago)
Launch vehicle
FALCON 9
Launch site
Air Force Eastern Test Range (AFETR)
Object type
Payload
Rocket body
Debris
Shape & HBR
Box + 1 Pan, 5 m
Radar Cross Section
9.079 m², Large (>1 m²)

Expand to show TLE details & history

TLE from 20 hours ago
0 LEGION 6
1 62901U 25025B   25191.45982538  .00001407  00000-0  10933-3 0  9995
2 62901  44.9950 239.1159 0018585 348.9218  11.1246 15.06631529 23821
Epoch: 2025-07-10T11:02Z
TLE epoch observation values (Epoch: 2025-07-10T11:02:08.912Z)
Latitude
Longitude
144.95298°
Altitude
533.875 km
Speed
7.604 km/s
True Right ascension
15h 56m 27s
True Declination
0° 00' 00"
Sunlit
Object was in full shadow at epoch
Visualization orbit readout
Latitude
23.33573°
Longitude
-64.80919°
Altitude
557.796 km
Speed
7.58 km/s
Apparent Right ascension
04h 07m 03s
Apparent Declination
-8° 33' 52"
Sunlit
Object is in daylight
Visualization observer readout
Local Sidereal Time
19:03:51
Azimuth
63.704° ENE
Elevation
-39.739°
Doppler factor
1
Orbital elements
Apogee altitude
560.97 km
Perigee altitude
535.225 km
Semi-major axis
6,926.234 km
Eccentricity
0.00186
Inclination
44.995°
RAAN
239.1159°
Arg. of periapsis
348.9218°
True anomaly
Unknown
Mean anomaly
11.1246°
Eccentric anomaly
Unknown
Mean motion
3.76528 °/min
Orbital period
95.61 mins
BSTAR
0.00010933
Loading maneuver chart data...
Loading SW <> Apogee altitude chart data...
Loading historical data...
Loading historical data...
Loading historical data...
Loading historical data...
Loading historical data...
Loading historical data...
Loading historical data...
Other satellites on launch #25 in the year 2025 (2025-02-04 UTC)

LEGION 6 Visibility forecast

Observer location: undefined°, undefined°

Span
Click to sort rows by Start time (UTC) header in descending order
Start Az.
Max El. time (UTC)
Max El. Az.
Max El.
End time (UTC)
End Az.
7 mins2025-07-11 07:59:35.323Z269.292° W2025-07-11 08:03:35.323Z4.915° NNE37.739°2025-07-11 08:06:35.323Z60.682° ENE
6 mins2025-07-11 09:41:35.323Z304.524° NW2025-07-11 09:43:35.323Z350.202° N32.773°2025-07-11 09:47:35.323Z74.899° E
7 mins2025-07-11 11:21:35.323Z295.036° NW2025-07-11 11:24:35.323Z64.804° ENE44.754°2025-07-11 11:28:35.323Z112.041° ESE
5 mins2025-07-11 13:02:35.323Z253.957° W2025-07-11 13:04:35.323Z214.172° SW21.074°2025-07-11 13:07:35.323Z167.303° S
6 mins2025-07-12 06:13:35.323Z226.618° WSW2025-07-12 06:15:35.323Z184.621° SSW40.48°2025-07-12 06:19:35.323Z71.603° E
|